281  
ASUS44 KLIX 172310  
RWRLIX  
NEW ORLEANS REGIONAL WEATHER ROUNDUP  
NATIONAL WEATHER SERVICE NEW ORLEANS LA  
500 PM CST THU JAN 17 2019  
 
NOTE: "FAIR" INDICATES FEW OR NO CLOUDS BELOW 12,000 FEET WITH NO  
SIGNIFICANT WEATHER AND/OR S TO VISIBILITY
.  
SKY/WX - SKY CONDITION AND SIGNIFICANT WEATHER.  
TMP - AIR TEMPERATURE. DP - DEWPOINT TEMPERATURE.  
RH - RELATIVE HUMIDITY. PRES - PRESSURE.  
HI - HEAT INDEX. WCI - WIND CHILL INDEX.  
 
* THESE STATIONS ARE NOT NWS OR FAA STATIONS AND ARE NOT UNDER  
NWS QUALITY CONTROL.  
 
LAZ038-040-048-061>063-065>067-069-180000-  
SOUTHEAST LOUISIANA  
 
CITY SKY/WX TMP DP RH WIND PRES REMARKS
 
N.O. INTL ARPT CLOUDY 65 61 87 S7 30.11F  
N.O. LAKEFRONT CLOUDY 64 57 78 S12 30.11F  
N.O. DOWNTOWN* CLOUDY 64 58 80 S6 30.12F  
RESERVE* CLOUDY 67 61 80 SW6 30.10F  
SLIDELL CLOUDY 60 54 80 SE7 30.11F  
BATON ROUGE CLOUDY 68 62 81 S9 30.08R  
BOOTHVILLE CLOUDY 60 54 80 S6 30.15S  
BELLE CHASSE CLOUDY 63 58 83 S8 30.11F  
BOGALUSA* CLOUDY 61 54 79 S6 30.12S  
GALLIANO* CLOUDY 66 59 78 S12 30.12F  
NEW ROADS* CLOUDY 68 61 77 SW13G20 30.07S  
GONZALES* CLOUDY 67 62 84 SW6 30.09S  
HAMMOND* CLOUDY 57 54 88 SE3 30.10S  
HOUMA* MOCLDY 68 63 83 SW7 30.11F  
PORT FOURCHON* CLOUDY 64 63 94 S6 30.14S  
 

 
 
MSZ070-080>082-180000-  
SOUTHERN MISSISSIPPI  
 
CITY SKY/WX TMP DP RH WIND PRES REMARKS
 
MCCOMB CLOUDY 60 55 83 SE3 30.10R  
GULFPORT CLOUDY 57 53 86 SE6 30.13F  
BILOXI CLOUDY 58 53 83 SE6 30.13F  
PASCAGOULA CLOUDY 60 52 74 SE6 30.14F  
 

 
 
COASTAL OBSERVATIONS  
LAKE AND NEARSHORE STATIONS  
 
STATION/POSITION TIME SKY/WX TEMP WIND PRES WAVE
 
AIR SEA DIR/SP/G HT/PER  
(UTC) (F) (DEG/KT/KT) (MB) (FT/S)  
WAVELAND YACHT 2242 57 53 150/ 5/ 6 1020.2  
GRAND ISLE 2242 63 56 200/ 6/ 11 1020.3  
SOUTHWEST PASS 2242 62 47 1021.5  
NEW CANAL 2242 64 54 190/ 7/ 11 1019.4  
SHELL BEACH 2242 61 57 160/ 6/ 8 1020.3  
 
OFFSHORE STATIONS  
 
STATION/POSITION TIME SKY/WX TEMP WIND PRES WAVE
 
AIR SEA DIR/SP/G HT/PER  
(UTC) (F) (DEG/KT/KT) (MB) (FT/S)  
64 S DAUPHIN ISL 2250 230/ 6/ 6 1021.5 1  
 

 
 
 
 
CLICK HERE TO GO TO PREVIOUS BULLETINS.

The Nexlab LA Page
The Nexlab MS Page Main Text Page